Regional Weather Roundup
Issued by NWS

Home | Current Version | Previous Version | Graphics & Text | Print | Product List | Glossary On
Versions: 1 2 3 4 5 6 7 8 9 10 11 12 13 14 15 16 17 18 19 20 21 22 23 24 25 26 27 28 29 30 31 32 33 34 35 36 37 38 39 40 41 42 43 44 45 46 47 48 49 50
000
ASUS43 KLSX 240907
RWRMO

WEATHER SUMMARY FOR MISSOURI
NATIONAL WEATHER SERVICE SPRINGFIELD MO
300 AM CST SAT FEB 24 2018

NOTE: "FAIR" INDICATES FEW OR NO CLOUDS BELOW 12,000 FEET WITH NO
       SIGNIFICANT WEATHER AND/OR OBSTRUCTIONS TO VISIBILITY.
       CURRENT SKY AND/OR WEATHER CONDITIONS ARE NOT AVAILABLE FOR
       CHILLICOTHE AND FARMINGTON.

MOZ001>031-035>038-043-044-053-054-241000-
...NORTHERN AND WESTERN MISSOURI...

CITY           SKY/WX    TMP DP  RH WIND       PRES   REMARKS
KANSAS CTY INT LGT RAIN  34  32  92 NE12      30.03F FOG     WCI  25
KANSAS C DTWN  LGT RAIN  36  32  85 NE10      30.02F FOG     WCI  28
LEE`S SUMMIT   MIX PCPN  34  34 100 E16G25    30.01F FOG     WCI  24
ST JOSEPH      CLOUDY    31  30  96 NE15      30.07F FOG     WCI  20
CHILLICOTHE      N/A     32  30  92 NE10      30.10F WCI  24
KIRKSVILLE     FRZ RAIN  31  31 100 NE15      30.11F FOG     WCI  20

$$
MOZ066>068-077>081-088>096-101>105-241000-
...SOUTHWEST MISSOURI...

CITY           SKY/WX    TMP DP  RH WIND       PRES   REMARKS
SPRINGFIELD    LGT RAIN  51  50  96 SE13      29.95R
JOPLIN         CLOUDY    40  40 100 NE6       29.95F FOG

$$
MOZ032>034-039>042-045>050-055>058-069>072-241000-
...CENTRAL MISSOURI...

CITY           SKY/WX    TMP DP  RH WIND       PRES   REMARKS
COLUMBIA       CLOUDY    37  36  96 NE15      30.01F WCI  28
JEFFERSON CITY LGT RAIN  39  37  92 E6        30.02F
ROLLA          HVY RAIN  42  42 100 E16       30.01F FOG
SEDALIA        MIX PCPN  37  37 100 NE10      30.04F FOG     WCI  30
WHITEMAN AFB   RAIN     N/A N/A N/A NE9       30.00F
WARRENSBURG    RAIN      34  34 100 NE9       30.04F WCI  26
OSAGE BEACH    LGT RAIN  40  40 100 E6        29.97F

$$
MOZ051-052-059>065-241000-
...EAST CENTRAL MISSOURI...

CITY           SKY/WX    TMP DP  RH WIND       PRES   REMARKS
ST LOUIS INTL  RAIN      39  39 100 NE8       30.11S FOG
SPIRIT OF STL  LGT RAIN  40  40 100 NE18      30.08F
ST CHARLES     LGT RAIN  39  37  92 NE10      30.11F

$$
MOZ072>076-082>087-097>100-106>115-241000-
...SOUTH CENTRAL AND SOUTHEAST MISSOURI...

CITY           SKY/WX    TMP DP  RH WIND       PRES   REMARKS
CAPE GIRARDEAU LGT RAIN  50  47  89 NE7       30.08F
FARMINGTON     RAIN      43  43 100 NE6       30.07F
POPLAR BLUFF   CLOUDY    50  49  96 NE12      30.03F
WEST PLAINS    LGT RAIN  48  46  93 E12G21    29.99F FOG

$$



USA.gov is the U.S. government's official web portal to all federal, state and local government web resources and services.